Location: Gro�wechsungen
(51.4926°N, 10.6901°E)
Time: 02:55:12
(UTC+00:00)

NOSS 3-2 (C) - Pass Details

Date: 18 September 2020
Orbit: 795 x 1418 km, 63.4° (Epoch: 02 October)

Event Time Altitude Azimuth Distance (km) Brightness Sun altitude
Rises 18:43:03 0° 313° (NW) 3,844 8.0 -12.9°
Reaches altitude 10° 18:45:34 10° 316° (NW) 2,972 7.1 -13.3°
Maximum altitude 18:52:45 68° 39° (NE) 1,317 4.1 -14.3°
Enters shadow 18:58:45 20° 119° (ESE) 2,652 5.1 -15.2°
